Regional Weather Roundup
Issued by NWS State College, PA

Home | Current Version | Previous Version | Text Only | Print | Product List | Glossary Off
Versions: 1 2 3 4 5 6 7 8 9 10 11 12 13 14 15 16 17 18 19 20 21 22 23 24 25 26 27 28 29 30 31 32 33 34 35 36 37 38 39 40 41 42 43 44 45 46 47 48 49 50

125
ASUS41 KCTP 291110
RWRCTP

REGIONAL WEATHER ROUNDUP
NATIONAL WEATHER SERVICE STATE COLLEGE PA
700 AM EDT SUN MAY 29 2016

Note: "fair" indicates few or no clouds below 12,000 feet with no
significant weather and/or obstructions to visibility.

* = STATION THAT DOES NOT REPORT PRECIPITATION /E.G. RAIN...SNOW...ETC/
    THUNDER OR FOG.

PAZ002>004-007>009-013>016-020>023-029>032-291200-
WESTERN PENNSYLVANIA

CITY           SKY/WX    TMP DP  RH WIND       PRES   REMARKS
ERIE           MOSUNNY   70  64  81 S5        30.10R
MEADVILLE      SUNNY     66  65  96 S3        30.13S
FRANKLIN*      SUNNY     64  63  94 CALM      30.16S
NEW CASTLE     FAIR      63  62  97 CALM      30.13S FOG
BEAVER COUNTY  NOT AVBL
BUTLER*        CLOUDY   N/A N/A N/A CALM      30.16R
PITTSBURGH INT CLOUDY    70  64  81 CALM      30.12S
PITTSBURGH     CLOUDY    68  63  84 CALM      30.13R
INDIANA*       SUNNY     66  66 100 CALM      30.17S
LATROBE        PTSUNNY   64  64 100 CALM      30.14S
WASHINGTON CO* MOSUNNY   64  63  94 CALM      30.14S
$$

PAZ004>006-010>012-017>019-024>028-033>037-041-042-045-046-049>053-291200-
CENTRAL PENNSYLVANIA

CITY           SKY/WX    TMP DP  RH WIND       PRES   REMARKS
BRADFORD       PTSUNNY   63  61  93 CALM      30.17R
DUBOIS         CLOUDY    66  64  93 CALM      30.15R FOG
CLEARFIELD     CLOUDY    64  62  93 CALM      30.15S FOG
JOHNSTOWN      MOSUNNY   64  60  87 CALM      30.17R FOG
ALTOONA        CLOUDY    66  62  87 CALM      30.16R
STATE COLLEGE  SUNNY     66  64  94 CALM      30.14R
WILLIAMSPORT   SUNNY     70  65  84 CALM      30.12R
SELINSGROVE    MOSUNNY   71  66  84 CALM      30.13S HAZE
FT INDIANTOWN  SUNNY     66  66  99 CALM      30.15R
CAPITAL CITY   PTSUNNY   71  62  73 SE5       30.14R
HARRISBURG     PTSUNNY   70  60  70 SE6       30.13R
YORK           MOSUNNY   65  61  87 SE6       30.15R
$$

PAZ038>040-043-044-047-048-054-055-060>062-067>071-291200-
EASTERN PENNSYLVANIA

CITY           SKY/WX    TMP DP  RH WIND       PRES   REMARKS
SCRANTON       SUNNY     69  64  84 E5        30.14S
MOUNT POCONO   SUNNY     64  62  93 CALM      30.19R FOG
ALLENTOWN      SUNNY     70  63  78 CALM      30.15R
QUAKERTOWN*    SUNNY     66  59  77 CALM      30.17S
READING          N/A     69  58  67 S5        30.14R
LANCASTER      SUNNY     64  60  87 CALM      30.16R
COATESVILLE    SUNNY     66  61  82 CALM      30.18S
POTTSTOWN      SUNNY     68  60  75 CALM      30.17S
BLUE BELL      SUNNY     66  61  82 S3        30.16R
DOYLESTOWN     SUNNY     66  58  75 SW3       30.16R
WILLOW GROVE   NOT AVBL
NORTH PHILA    SUNNY     70  59  68 CALM      30.18R
PHILADELPHIA   PTSUNNY   67  58  72 S3        30.17R
$$




USA.gov is the U.S. government's official web portal to all federal, state and local government web resources and services.